Showing default

TBA - TO BE ASSIGNED, 64490

Orbit data source: Space-Track

TBA - TO BE ASSIGNED named objects are likely recently launched satellites that are being tracked but not necessarily identified.

Not visible in the next 10 days
Identifier
64490, 2025-133U
Orbit
LEO
Last TLE update
13 hours ago
Origin
Manufacturer
SpaceX/Seattle
Mission
Operational spacecraft
Bus & Motor
STARLINK V2MO, Unknown motor
Mass
575 kg wet, ~530 kg dry
Launch date (UTC)
2025-06-23 (1 week ago)
Launch vehicle
FALCON 9
Launch site
Air Force Eastern Test Range (AFETR)
Object type
Payload
Rocket body
Debris
Shape & HBR
Unknown
Radar Cross Section
RCS unknown

Expand to show TLE details & history

TLE from 13 hours ago
0 STARLINK-34505
1 64490U 25133U   25181.91668981 -.01177503  00000-0 -47252-2 0  9990
2 64490  53.1554 219.1855 0000859  85.3218 129.1973 15.88491312  2431
Epoch: 2025-06-30T22:00Z
TLE epoch observation values (Epoch: 2025-06-30T22:00:01.999Z)
Latitude
-27.1803°
Longitude
172.45209°
Altitude
314.951 km
Speed
7.719 km/s
True Right ascension
04h 06m 43s
True Declination
-27° 01' 54"
Sunlit
Object was in daylight at epoch
Visualization orbit readout
Latitude
8.02074°
Longitude
-26.7042°
Altitude
310.514 km
Speed
7.724 km/s
Apparent Right ascension
12h 59m 00s
Apparent Declination
-18° 01' 00"
Sunlit
Object is in full shadow
Visualization observer readout
Local Sidereal Time
22:22:48
Azimuth
291.554° WNW
Elevation
-49.897°
Doppler factor
1
Orbital elements
Apogee altitude
307.35 km
Perigee altitude
306.201 km
Semi-major axis
6,684.913 km
Eccentricity
0.00009
Inclination
53.1554°
RAAN
219.1855°
Arg. of periapsis
85.3218°
True anomaly
Unknown
Mean anomaly
129.1973°
Eccentric anomaly
Unknown
Mean motion
3.971 °/min
Orbital period
90.66 mins
BSTAR
-0.0047252
Loading maneuver chart data...
Loading SW <> Apogee altitude chart data...

TBA - TO BE ASSIGNED Visibility

Observer location: undefined°, undefined°

TBA - TO BE ASSIGNED is likely not visible in the next few days
Span
Click to sort rows by Start time (UTC) header in descending order
Start Az.
Max El. time (UTC)
Max El. Az.
Max El.
End time (UTC)
End Az.
|